Terug naar catalogus

STARLINK-34964

ActiefCommunicatieSSO
NORAD 65239·PAYLOAD·🇺🇸 United States

Gelanceerd Aug 18, 2025 vanaf Vandenberg Space Force Base

Loading…

Volgende Passages (komende 24 uur)

TLE

VersSource: CelesTrak SupGP

Epoch: Sep 15, 2026, 03:18 UTC

1 65239C 25179E   26258.13798611 -.00004086  00000+0 -12684-3 0  2589
2 65239  97.2834 297.5749 0000922  83.2370 287.1869 15.33440066    13

Volg STARLINK-34964 in realtime met AllMySat

Download on the App Store